Weather Service Report


045 
ASUS45 KBOI 281410
RWRID 
WEATHER ROUNDUP FOR IDAHO
NATIONAL WEATHER SERVICE BOISE ID
800 AM MDT SAT MAR 28 2015

NOTE: "FAIR" INDICATES FEW OR NO CLOUDS BELOW 12000 FEET
WITH NO SIGNIFICANT WEATHER AND/OR OBSTRUCTIONS TO VISIBILITY

IDZ012-014-281500-
SOUTHWEST IDAHO

  
CITY           SKY/WX    TMP DP  RH WIND       PRES   REMARKS
BOISE          CLOUDY    50  42  74 NW25G40   30.14R                  
CALDWELL       CLOUDY    50  34  53 NW15G23   30.17R                  
MOUNTAIN HOME  CLOUDY    56  41  57 NW13      30.10R                  
$$

IDZ016-017-281500-
SOUTHCENTRAL IDAHO

  
CITY           SKY/WX    TMP DP  RH WIND       PRES   REMARKS
BURLEY         CLEAR     55  29  36 W20       30.06R                  
JEROME         CLEAR     48  31  51 S7        30.08R                  
TWIN FALLS     CLEAR     56  28  34 SW17G28   30.07R                  
$$

IDZ019>023-281500-
SOUTHEAST IDAHO

  
CITY           SKY/WX    TMP DP  RH WIND       PRES   REMARKS
IDAHO FALLS    CLEAR     41  31  67 SW7       30.02F                  
POCATELLO      CLEAR     56  29  35 SW14      30.04R                  
REXBURG        PTCLDY    34  31  88 NE5       30.02F WCI  30          
$$

IDZ006-010-011-018-031-032-281500-
CENTRAL IDAHO MOUNTAINS

  
CITY           SKY/WX    TMP DP  RH WIND       PRES   REMARKS
MCCALL         LGT RAIN  39  35  86 W15G25    30.08R WCI  31          
HAILEY         PTCLDY    39  32  75 W9        30.07S WCI  33          
STANLEY          N/A     49  30  48 VRB5G17   30.04F                  
SALMON         CLOUDY    37  34  87 CALM      29.89S                  
CHALLIS        PTCLDY    39  31  72 N5        29.95F                  
$$

IDZ002-004-006-007-026-281500-
NORTHERN IDAHO

  
CITY           SKY/WX    TMP DP  RH WIND       PRES   REMARKS
LEWISTON       MOCLDY    49  38  65 W5        30.10R                  
LOWELL           N/A     47  45  93 CALM      30.14R                  
COEUR D'ALENE  CLOUDY    46  36  66 SW23G36   29.98R                  
MULLAN PASS    SNOW      31  31 100 VRB6      29.94R VSB 1/2 WCI  25  
$$

Return to Home page


Western Regional Climate Center, wrcc@dri.edu